Time,TemperatureF,DewpointF,PressureIn,WindDirection,WindDirectionDegrees,WindSpeedMPH,WindSpeedGustMPH,Humidity,HourlyPrecipIn,Conditions,Clouds,dailyrainin,SolarRadiationWatts/m^2,SoftwareType,DateUTC
2013-04-19 00:01:00,68.9,58.3,29.58,SE,129,12.1,20.7,69,0.00,RA,BKN,0.00,0.0,WeatherDisplay:10.37,2013-04-19 04:01:00,
2013-04-19 00:02:00,68.9,58.3,29.58,SW,218,13.6,20.7,69,0.00,RA,BKN,0.00,0.0,WeatherDisplay:10.37,2013-04-19 04:02:00,
2013-04-19 00:07:00,69.1,58.5,29.58,SSE,160,10.8,16.0,69,0.00,RA,BKN,0.00,0.0,WeatherDisplay:10.37,2013-04-19 04:07:00,
2013-04-19 00:12:00,68.9,58.3,29.58,SE,135,10.8,17.3,69,0.00,BKN,,0.00,0.0,WeatherDisplay:10.37,2013-04-19 04:12:00,
2013-04-19 00:17:00,68.9,57.9,29.58,South,169,7.2,13.8,68,0.00,BKN,,0.00,0.0,WeatherDisplay:10.37,2013-04-19 04:17:00,
2013-04-19 00:22:00,68.9,58.3,29.58,SE,132,12.0,20.7,69,0.00,BKN,,0.00,0.0,WeatherDisplay:10.37,2013-04-19 04:22:00,
2013-04-19 00:27:00,69.1,58.5,29.59,SSE,154,10.6,21.9,69,0.00,BKN,,0.00,0.0,WeatherDisplay:10.37,2013-04-19 04:27:00,
2013-04-19 00:32:00,68.9,58.3,29.58,SSE,163,12.0,15.5,69,0.00,BKN,,0.00,0.0,WeatherDisplay:10.37,2013-04-19 04:32:00,
2013-04-19 00:37:00,69.1,58.5,29.59,SE,132,10.3,16.1,69,0.00,BKN,,0.00,0.0,WeatherDisplay:10.37,2013-04-19 04:37:00,
2013-04-19 00:42:00,69.1,58.1,29.57,SSW,193,8.1,17.3,68,0.00,BKN,,0.00,0.0,WeatherDisplay:10.37,2013-04-19 04:42:00,
2013-04-19 00:47:00,69.1,58.1,29.57,SSW,213,9.5,12.1,68,0.00,BKN,,0.00,0.0,WeatherDisplay:10.37,2013-04-19 04:47:00,
2013-04-19 00:52:00,69.1,58.1,29.57,SSE,153,11.4,20.0,68,0.00,BKN,,0.00,0.0,WeatherDisplay:10.37,2013-04-19 04:52:00,
2013-04-19 00:57:00,69.1,58.1,29.57,South,187,7.7,12.7,68,0.00,BKN,,0.00,0.0,WeatherDisplay:10.37,2013-04-19 04:57:00,
2013-04-19 01:02:00,69.1,58.1,29.58,SE,138,8.5,13.8,68,0.00,BKN,,0.00,0.0,WeatherDisplay:10.37,2013-04-19 05:02:00,
2013-04-19 01:07:00,69.4,58.4,29.58,SSE,153,5.5,13.8,68,0.00,BKN,,0.00,0.0,WeatherDisplay:10.37,2013-04-19 05:07:00,
2013-04-19 01:12:00,69.1,58.1,29.59,South,174,7.4,15.0,68,0.00,BKN,,0.00,0.0,WeatherDisplay:10.37,2013-04-19 05:12:00,
2013-04-19 01:17:00,69.4,58.4,29.59,South,176,5.8,9.2,68,0.00,BKN,,0.00,0.0,WeatherDisplay:10.37,2013-04-19 05:17:00,
2013-04-19 01:22:00,69.4,58.0,29.59,SSE,155,5.3,10.4,67,0.00,BKN,,0.00,0.0,WeatherDisplay:10.37,2013-04-19 05:22:00,
2013-04-19 01:27:00,69.4,58.0,29.59,South,187,6.8,12.5,67,0.00,BKN,,0.00,0.0,WeatherDisplay:10.37,2013-04-19 05:27:00,
2013-04-19 01:32:00,69.4,58.0,29.59,South,191,5.4,6.9,67,0.00,BKN,,0.00,0.0,WeatherDisplay:10.37,2013-04-19 05:32:00,
2013-04-19 01:37:00,69.3,57.8,29.59,SSW,197,7.4,11.5,67,0.00,BKN,,0.00,0.0,WeatherDisplay:10.37,2013-04-19 05:37:00,
2013-04-19 01:42:00,69.4,58.0,29.59,South,184,5.3,11.5,67,0.00,BKN,,0.00,0.0,WeatherDisplay:10.37,2013-04-19 05:42:00,
2013-04-19 01:47:00,69.4,58.0,29.59,South,171,7.0,9.4,67,0.00,BKN,,0.00,0.0,WeatherDisplay:10.37,2013-04-19 05:47:00,
2013-04-19 01:52:00,69.4,57.6,29.59,SSW,203,7.0,9.9,66,0.00,BKN,,0.00,0.0,WeatherDisplay:10.37,2013-04-19 05:52:00,
2013-04-19 01:57:00,69.6,57.8,29.59,South,182,5.1,10.0,66,0.00,BKN,,0.00,0.0,WeatherDisplay:10.37,2013-04-19 05:57:00,
2013-04-19 02:02:00,69.6,57.8,29.59,South,181,5.1,9.2,66,0.00,BKN,,0.00,0.0,WeatherDisplay:10.37,2013-04-19 06:02:00,
2013-04-19 02:07:00,69.6,57.8,29.59,SSW,192,4.1,6.9,66,0.00,BKN,,0.00,0.0,WeatherDisplay:10.37,2013-04-19 06:07:00,
2013-04-19 02:12:00,69.6,57.8,29.59,South,179,2.7,6.9,66,0.00,BKN,,0.00,0.0,WeatherDisplay:10.37,2013-04-19 06:12:00,
2013-04-19 02:17:00,69.6,57.8,29.58,South,180,4.0,9.2,66,0.00,BKN,,0.00,0.0,WeatherDisplay:10.37,2013-04-19 06:17:00,
2013-04-19 02:22:00,69.6,57.8,29.58,South,176,5.0,5.0,66,0.00,BKN,,0.00,0.0,WeatherDisplay:10.37,2013-04-19 06:22:00,
2013-04-19 02:27:00,69.6,57.8,29.57,SSW,197,2.8,3.5,66,0.00,BKN,,0.00,0.0,WeatherDisplay:10.37,2013-04-19 06:27:00,
2013-04-19 02:32:00,69.4,57.6,29.57,SSE,167,3.6,5.3,66,0.00,BKN,,0.00,0.0,WeatherDisplay:10.37,2013-04-19 06:32:00,
2013-04-19 02:37:00,69.6,57.8,29.57,SSW,197,2.4,4.6,66,0.00,BKN,,0.00,0.0,WeatherDisplay:10.37,2013-04-19 06:37:00,
2013-04-19 02:42:00,69.4,57.6,29.56,South,182,3.1,8.4,66,0.00,BKN,,0.00,0.0,WeatherDisplay:10.37,2013-04-19 06:42:00,
2013-04-19 02:47:00,69.4,57.6,29.57,South,182,4.1,4.6,66,0.00,BKN,,0.00,0.0,WeatherDisplay:10.37,2013-04-19 06:47:00,
2013-04-19 02:52:00,69.3,57.4,29.56,SSW,193,4.8,9.2,66,0.00,BKN,,0.00,0.0,WeatherDisplay:10.37,2013-04-19 06:52:00,
2013-04-19 02:57:00,69.3,57.4,29.55,SSE,166,4.0,9.2,66,0.00,BKN,,0.00,0.0,WeatherDisplay:10.37,2013-04-19 06:57:00,
2013-04-19 03:02:00,69.3,57.0,29.55,South,171,3.6,8.1,65,0.00,BKN,,0.00,0.0,WeatherDisplay:10.37,2013-04-19 07:02:00,
2013-04-19 03:07:00,69.1,56.8,29.55,South,183,5.2,6.9,65,0.00,BKN,,0.00,0.0,WeatherDisplay:10.37,2013-04-19 07:07:00,
2013-04-19 03:12:00,69.1,56.8,29.55,South,179,4.2,9.2,65,0.00,BKN,,0.00,0.0,WeatherDisplay:10.37,2013-04-19 07:12:00,
2013-04-19 03:17:00,69.1,56.8,29.55,SE,142,5.6,9.2,65,0.00,BKN,,0.00,0.0,WeatherDisplay:10.37,2013-04-19 07:17:00,
2013-04-19 03:22:00,69.1,56.8,29.55,SSW,199,5.2,6.0,65,0.00,BKN,,0.00,0.0,WeatherDisplay:10.37,2013-04-19 07:22:00,
2013-04-19 03:27:00,69.1,56.8,29.55,South,177,5.9,8.4,65,0.00,BKN,,0.00,0.0,WeatherDisplay:10.37,2013-04-19 07:27:00,
2013-04-19 03:32:00,69.1,56.8,29.55,South,184,4.8,6.9,65,0.00,BKN,,0.00,0.0,WeatherDisplay:10.37,2013-04-19 07:32:00,
2013-04-19 03:37:00,68.9,56.2,29.54,SSE,159,6.3,9.2,64,0.00,BKN,,0.00,0.0,WeatherDisplay:10.37,2013-04-19 07:37:00,
2013-04-19 03:42:00,68.9,56.2,29.54,SSE,163,4.6,8.1,64,0.00,BKN,,0.00,0.0,WeatherDisplay:10.37,2013-04-19 07:42:00,
2013-04-19 03:47:00,68.7,56.0,29.53,SSE,160,4.6,8.1,64,0.00,BKN,,0.00,0.0,WeatherDisplay:10.37,2013-04-19 07:47:00,
2013-04-19 03:52:00,68.7,56.0,29.53,SSE,152,5.7,8.1,64,0.00,BKN,,0.00,0.0,WeatherDisplay:10.37,2013-04-19 07:52:00,
2013-04-19 03:57:00,68.7,56.0,29.53,South,190,5.6,8.1,64,0.00,BKN,,0.00,0.0,WeatherDisplay:10.37,2013-04-19 07:57:00,
2013-04-19 04:02:00,68.7,56.0,29.52,SSE,159,5.3,5.8,64,0.00,BKN,,0.00,0.0,WeatherDisplay:10.37,2013-04-19 08:02:00,
2013-04-19 04:07:00,68.5,55.9,29.51,SSW,197,7.1,13.8,64,0.00,BKN,,0.00,0.0,WeatherDisplay:10.37,2013-04-19 08:07:00,
2013-04-19 04:12:00,68.7,56.0,29.51,SW,226,6.3,11.5,64,0.00,BKN,,0.00,0.0,WeatherDisplay:10.37,2013-04-19 08:12:00,
2013-04-19 04:17:00,68.5,55.9,29.51,SW,223,5.3,10.4,64,0.00,BKN,,0.00,0.0,WeatherDisplay:10.37,2013-04-19 08:17:00,
2013-04-19 04:22:00,68.5,55.9,29.51,SE,139,6.2,8.4,64,0.00,BKN,,0.00,0.0,WeatherDisplay:10.37,2013-04-19 08:22:00,
2013-04-19 04:27:00,68.4,55.7,29.51,SSE,163,6.8,10.4,64,0.00,BKN,,0.00,0.0,WeatherDisplay:10.37,2013-04-19 08:27:00,
2013-04-19 04:32:00,68.5,55.9,29.50,SE,146,6.6,10.6,64,0.00,BKN,,0.00,0.0,WeatherDisplay:10.37,2013-04-19 08:32:00,
2013-04-19 04:37:00,68.2,55.5,29.50,South,173,8.0,15.0,64,0.00,BKN,,0.00,0.0,WeatherDisplay:10.37,2013-04-19 08:37:00,
2013-04-19 04:42:00,68.2,55.5,29.50,SSE,162,7.1,15.0,64,0.00,BKN,,0.00,0.0,WeatherDisplay:10.37,2013-04-19 08:42:00,
2013-04-19 04:50:00,68.0,55.4,29.50,South,179,16.1,16.1,64,0.00,BKN,,0.00,0.0,WeatherDisplay:10.37,2013-04-19 08:50:00,
2013-04-19 04:55:00,67.8,55.6,29.50,South,176,8.4,12.7,65,0.00,BKN,,0.00,0.0,WeatherDisplay:10.37,2013-04-19 08:55:00,
2013-04-19 05:00:00,67.8,55.6,29.50,South,185,6.6,10.4,65,0.00,BKN,,0.00,0.0,WeatherDisplay:10.37,2013-04-19 09:00:00,
2013-04-19 05:05:00,67.6,55.9,29.50,SSE,162,8.8,13.0,66,0.00,BKN,,0.00,0.0,WeatherDisplay:10.37,2013-04-19 09:05:00,
2013-04-19 05:10:00,67.6,55.9,29.50,SSE,166,9.4,15.0,66,0.00,BKN,,0.00,0.0,WeatherDisplay:10.37,2013-04-19 09:10:00,
2013-04-19 05:15:00,67.6,55.9,29.50,SE,139,10.0,12.7,66,0.00,BKN,,0.00,0.0,WeatherDisplay:10.37,2013-04-19 09:15:00,
2013-04-19 05:20:00,67.6,55.9,29.50,SSE,163,9.5,15.0,66,0.00,BKN,,0.00,0.0,WeatherDisplay:10.37,2013-04-19 09:20:00,
2013-04-19 05:25:00,67.5,55.7,29.50,SE,139,9.1,16.1,66,0.00,BKN,,0.00,0.0,WeatherDisplay:10.37,2013-04-19 09:25:00,
2013-04-19 05:30:00,67.3,55.5,29.50,SSE,160,10.7,15.0,66,0.00,BKN,,0.00,0.0,WeatherDisplay:10.37,2013-04-19 09:30:00,
2013-04-19 05:35:00,67.3,55.5,29.50,SE,140,8.8,13.8,66,0.00,BKN,,0.00,0.0,WeatherDisplay:10.37,2013-04-19 09:35:00,
2013-04-19 05:40:00,67.3,55.5,29.50,SE,136,8.3,15.0,66,0.00,BKN,,0.00,0.0,WeatherDisplay:10.37,2013-04-19 09:40:00,
2013-04-19 05:45:00,67.3,55.5,29.50,South,171,9.7,11.6,66,0.00,BKN,,0.00,0.0,WeatherDisplay:10.37,2013-04-19 09:45:00,
2013-04-19 05:50:00,67.3,55.5,29.50,SSE,161,9.2,13.8,66,0.00,BKN,,0.00,0.0,WeatherDisplay:10.37,2013-04-19 09:50:00,
2013-04-19 05:55:00,67.1,55.4,29.50,SE,137,8.2,13.8,66,0.00,BKN,,0.00,0.0,WeatherDisplay:10.37,2013-04-19 09:55:00,
2013-04-19 06:00:00,66.9,55.2,29.50,SSE,147,7.6,17.6,66,0.00,BKN,,0.00,0.0,WeatherDisplay:10.37,2013-04-19 10:00:00,
2013-04-19 06:05:00,66.9,55.6,29.49,SSE,150,7.4,12.7,67,0.00,BKN,,0.00,0.0,WeatherDisplay:10.37,2013-04-19 10:05:00,
2013-04-19 06:10:00,66.7,55.4,29.49,SSE,152,9.9,17.3,67,0.00,BKN,,0.00,0.0,WeatherDisplay:10.37,2013-04-19 10:10:00,
2013-04-19 06:15:00,66.9,55.6,29.49,SE,137,7.4,17.3,67,0.00,BKN,,0.00,0.0,WeatherDisplay:10.37,2013-04-19 10:15:00,
2013-04-19 06:20:00,66.9,55.6,29.49,SSE,154,7.9,12.7,67,0.00,BKN,,0.00,0.0,WeatherDisplay:10.37,2013-04-19 10:20:00,
2013-04-19 06:25:00,66.7,55.4,29.48,ESE,113,7.1,13.3,67,0.00,BKN,,0.00,0.0,WeatherDisplay:10.37,2013-04-19 10:25:00,
2013-04-19 06:30:00,66.7,55.4,29.48,SE,146,7.5,13.8,67,0.00,BKN,,0.00,0.0,WeatherDisplay:10.37,2013-04-19 10:30:00,
2013-04-19 06:35:00,66.7,55.4,29.48,SSE,154,10.3,15.0,67,0.00,BKN,,0.00,0.0,WeatherDisplay:10.37,2013-04-19 10:35:00,
2013-04-19 06:40:00,66.7,55.4,29.48,SSE,150,8.4,11.5,67,0.00,BKN,,0.00,0.0,WeatherDisplay:10.37,2013-04-19 10:40:00,
2013-04-19 06:45:00,66.7,55.8,29.48,SSE,148,8.3,15.0,68,0.00,BKN,,0.00,0.0,WeatherDisplay:10.37,2013-04-19 10:45:00,
2013-04-19 06:50:00,66.7,55.8,29.48,SSE,163,6.9,13.2,68,0.00,BKN,,0.00,0.0,WeatherDisplay:10.37,2013-04-19 10:50:00,
2013-04-19 06:55:00,66.6,55.3,29.48,SE,136,10.8,15.0,67,0.00,BKN,,0.00,0.0,WeatherDisplay:10.37,2013-04-19 10:55:00,
2013-04-19 07:00:00,66.7,55.4,29.48,SE,137,8.1,11.5,67,0.00,BKN,,0.00,0.0,WeatherDisplay:10.37,2013-04-19 11:00:00,
2013-04-19 07:05:00,66.7,55.4,29.48,ESE,120,8.7,13.6,67,0.00,OVC,BKN,0.00,0.0,WeatherDisplay:10.37,2013-04-19 11:05:00,
2013-04-19 07:10:00,66.7,55.4,29.48,SE,126,9.6,13.8,67,0.00,OVC,BKN,0.00,0.0,WeatherDisplay:10.37,2013-04-19 11:10:00,
2013-04-19 07:15:00,66.7,55.4,29.47,ESE,108,9.2,23.0,67,0.00,OVC,BKN,0.00,0.0,WeatherDisplay:10.37,2013-04-19 11:15:00,
2013-04-19 07:20:00,66.9,55.6,29.47,SE,130,7.9,11.5,67,0.00,OVC,BKN,0.00,0.0,WeatherDisplay:10.37,2013-04-19 11:20:00,
2013-04-19 07:25:00,66.9,55.6,29.47,SSE,158,12.9,21.9,67,0.00,OVC,BKN,0.00,0.0,WeatherDisplay:10.37,2013-04-19 11:25:00,
2013-04-19 07:30:00,66.9,56.0,29.47,SSE,154,9.9,16.1,68,0.00,OVC,BKN,0.00,0.0,WeatherDisplay:10.37,2013-04-19 11:30:00,
2013-04-19 07:35:00,66.9,56.0,29.47,SSE,167,11.1,18.4,68,0.00,OVC,BKN,0.00,0.2,WeatherDisplay:10.37,2013-04-19 11:35:00,
2013-04-19 07:40:00,66.9,56.0,29.46,SSE,160,11.1,18.4,68,0.00,OVC,BKN,0.00,0.6,WeatherDisplay:10.37,2013-04-19 11:40:00,
2013-04-19 07:45:00,67.3,56.4,29.46,ESE,119,9.1,16.1,68,0.00,OVC,BKN,0.00,1.1,WeatherDisplay:10.37,2013-04-19 11:45:00,
2013-04-19 07:50:00,67.3,56.4,29.46,SE,138,10.1,13.8,68,0.00,OVC,BKN,0.00,1.7,WeatherDisplay:10.37,2013-04-19 11:50:00,
2013-04-19 07:55:00,67.3,56.4,29.46,SE,146,11.6,13.8,68,0.00,OVC,BKN,0.00,2.2,WeatherDisplay:10.37,2013-04-19 11:55:00,
2013-04-19 08:00:00,67.3,56.4,29.46,SE,130,13.2,18.4,68,0.00,OVC,BKN,0.00,3.1,WeatherDisplay:10.37,2013-04-19 12:00:00,
2013-04-19 08:05:00,67.3,56.4,29.46,SE,127,10.4,18.4,68,0.00,OVC,BKN,0.00,4.5,WeatherDisplay:10.37,2013-04-19 12:05:00,
2013-04-19 08:10:00,67.3,56.4,29.46,SSE,156,10.5,16.8,68,0.00,OVC,BKN,0.00,7.0,WeatherDisplay:10.37,2013-04-19 12:10:00,
2013-04-19 08:15:00,67.5,56.5,29.46,South,187,9.4,12.7,68,0.00,OVC,BKN,0.00,9.2,WeatherDisplay:10.37,2013-04-19 12:15:00,
2013-04-19 08:20:00,67.8,56.5,29.46,SSE,167,8.1,11.5,67,0.00,OVC,BKN,0.00,11.0,WeatherDisplay:10.37,2013-04-19 12:20:00,
2013-04-19 08:25:00,67.8,56.5,29.45,SSE,164,11.0,13.3,67,0.00,OVC,BKN,0.00,10.8,WeatherDisplay:10.37,2013-04-19 12:25:00,
2013-04-19 08:30:00,67.8,56.5,29.44,SE,124,11.8,16.8,67,0.00,OVC,BKN,0.00,10.5,WeatherDisplay:10.37,2013-04-19 12:30:00,
2013-04-19 08:35:00,68.0,56.6,29.44,SSE,150,10.2,15.0,67,0.00,OVC,BKN,0.00,11.7,WeatherDisplay:10.37,2013-04-19 12:35:00,
2013-04-19 08:40:00,68.0,56.6,29.44,SSE,149,12.6,18.4,67,0.00,OVC,BKN,0.00,13.0,WeatherDisplay:10.37,2013-04-19 12:40:00,
2013-04-19 08:45:00,67.8,56.0,29.44,South,176,12.5,15.0,66,0.00,OVC,BKN,0.00,14.8,WeatherDisplay:10.37,2013-04-19 12:45:00,
2013-04-19 08:50:00,68.2,56.4,29.43,ESE,123,7.5,15.0,66,0.00,OVC,BKN,0.00,14.9,WeatherDisplay:10.37,2013-04-19 12:50:00,
2013-04-19 08:55:00,68.2,56.4,29.43,South,178,10.2,17.3,66,0.00,OVC,BKN,0.00,14.5,WeatherDisplay:10.37,2013-04-19 12:55:00,
2013-04-19 09:00:00,68.2,56.4,29.43,SSE,153,10.3,18.4,66,0.00,OVC,BKN,0.00,15.4,WeatherDisplay:10.37,2013-04-19 13:00:00,
2013-04-19 09:05:00,68.4,56.6,29.42,SSE,154,9.1,16.1,66,0.00,OVC,BKN,0.00,15.4,WeatherDisplay:10.37,2013-04-19 13:05:00,
2013-04-19 09:10:00,68.4,56.6,29.42,SSE,153,11.6,15.0,66,0.00,OVC,BKN,0.00,21.5,WeatherDisplay:10.37,2013-04-19 13:10:00,
2013-04-19 09:15:00,68.5,56.3,29.41,SE,137,10.9,18.4,65,0.00,OVC,BKN,0.00,23.5,WeatherDisplay:10.37,2013-04-19 13:15:00,
2013-04-19 09:20:00,68.5,56.7,29.40,SSW,209,9.8,13.8,66,0.00,OVC,BKN,0.00,28.9,WeatherDisplay:10.37,2013-04-19 13:20:00,
2013-04-19 09:25:00,68.7,56.5,29.41,SSW,213,10.1,16.1,65,0.00,OVC,BKN,0.00,26.8,WeatherDisplay:10.37,2013-04-19 13:25:00,
2013-04-19 09:30:00,68.5,56.3,29.40,South,170,13.7,21.9,65,0.00,OVC,BKN,0.00,28.9,WeatherDisplay:10.37,2013-04-19 13:30:00,
2013-04-19 09:35:00,68.7,56.5,29.39,ENE,77,12.3,18.9,65,0.00,OVC,BKN,0.00,39.3,WeatherDisplay:10.37,2013-04-19 13:35:00,
2013-04-19 09:40:00,68.7,56.5,29.40,SSE,150,12.7,20.7,65,0.00,OVC,BKN,0.00,52.8,WeatherDisplay:10.37,2013-04-19 13:40:00,
2013-04-19 09:45:00,69.1,56.8,29.40,SSE,149,10.0,18.4,65,0.00,OVC,BKN,0.00,61.8,WeatherDisplay:10.37,2013-04-19 13:45:00,
2013-04-19 09:50:00,69.1,56.4,29.39,South,189,10.4,18.4,64,0.00,OVC,BKN,0.00,63.8,WeatherDisplay:10.37,2013-04-19 13:50:00,
2013-04-19 09:55:00,69.1,56.4,29.39,SSE,154,13.6,16.1,64,0.00,OVC,BKN,0.00,67.9,WeatherDisplay:10.37,2013-04-19 13:55:00,
2013-04-19 10:00:00,69.4,56.7,29.39,SSE,163,7.7,11.5,64,0.00,OVC,BKN,0.00,85.8,WeatherDisplay:10.37,2013-04-19 14:00:00,
2013-04-19 10:05:00,69.4,56.7,29.39,SSE,158,10.0,19.6,64,0.00,OVC,BKN,0.00,111.9,WeatherDisplay:10.37,2013-04-19 14:05:00,
2013-04-19 10:10:00,69.6,56.9,29.38,SE,137,10.6,16.1,64,0.00,OVC,BKN,0.00,185.8,WeatherDisplay:10.37,2013-04-19 14:10:00,
2013-04-19 10:15:00,70.0,56.8,29.38,SSE,151,9.4,16.1,63,0.00,OVC,BKN,0.00,194.0,WeatherDisplay:10.37,2013-04-19 14:15:00,
2013-04-19 10:20:00,70.0,56.4,29.37,SE,137,12.2,16.1,62,0.00,OVC,BKN,0.00,114.6,WeatherDisplay:10.37,2013-04-19 14:20:00,
2013-04-19 10:25:00,70.0,56.4,29.37,SE,145,9.6,12.4,62,0.00,OVC,BKN,0.00,140.0,WeatherDisplay:10.37,2013-04-19 14:25:00,
2013-04-19 10:30:00,70.3,56.7,29.37,SSE,149,10.8,13.8,62,0.00,OVC,BKN,0.00,198.6,WeatherDisplay:10.37,2013-04-19 14:30:00,
2013-04-19 10:35:00,70.3,56.7,29.36,SSW,202,11.3,18.4,62,0.00,OVC,BKN,0.00,213.6,WeatherDisplay:10.37,2013-04-19 14:35:00,
2013-04-19 10:40:00,70.5,56.9,29.36,SE,146,14.0,18.7,62,0.00,OVC,BKN,0.00,186.8,WeatherDisplay:10.37,2013-04-19 14:40:00,
2013-04-19 10:45:00,70.9,56.8,29.36,SSE,148,11.4,18.4,61,0.00,OVC,BKN,0.00,180.0,WeatherDisplay:10.37,2013-04-19 14:45:00,
2013-04-19 10:50:00,71.1,56.9,29.36,SSW,201,8.4,13.8,61,0.00,OVC,BKN,0.00,139.2,WeatherDisplay:10.37,2013-04-19 14:50:00,
2013-04-19 10:55:00,70.9,56.8,29.36,SSE,163,10.6,18.4,61,0.00,OVC,BKN,0.00,192.1,WeatherDisplay:10.37,2013-04-19 14:55:00,
2013-04-19 11:00:00,71.2,57.1,29.36,SSW,192,12.5,17.3,61,0.00,OVC,BKN,0.00,212.3,WeatherDisplay:10.37,2013-04-19 15:00:00,
2013-04-19 11:05:00,71.4,57.3,29.37,South,178,7.4,11.5,61,0.00,-RA,BKN,0.00,177.7,WeatherDisplay:10.37,2013-04-19 15:05:00,
2013-04-19 11:10:00,71.4,56.8,29.36,SE,127,9.7,12.7,60,0.00,-RA,BKN,0.00,217.2,WeatherDisplay:10.37,2013-04-19 15:10:00,
2013-04-19 11:15:00,71.8,56.7,29.36,SE,138,10.6,15.0,59,0.00,-RA,BKN,0.00,206.0,WeatherDisplay:10.37,2013-04-19 15:15:00,
2013-04-19 11:20:00,72.1,57.0,29.36,SSE,149,6.8,10.4,59,0.00,-RA,BKN,0.00,196.5,WeatherDisplay:10.37,2013-04-19 15:20:00,
2013-04-19 11:25:00,72.1,57.0,29.36,South,169,8.5,12.7,59,0.00,-RA,BKN,0.00,205.9,WeatherDisplay:10.37,2013-04-19 15:25:00,
2013-04-19 11:30:00,72.3,56.7,29.36,SSE,158,6.0,11.5,58,0.00,-RA,BKN,0.00,191.8,WeatherDisplay:10.37,2013-04-19 15:30:00,
2013-04-19 11:35:00,72.3,56.7,29.34,SE,143,7.9,13.8,58,0.00,-RA,BKN,0.00,172.5,WeatherDisplay:10.37,2013-04-19 15:35:00,
2013-04-19 11:40:00,72.5,56.4,29.34,SSW,199,9.0,11.5,57,0.00,-RA,BKN,0.00,211.7,WeatherDisplay:10.37,2013-04-19 15:40:00,
2013-04-19 11:45:00,72.7,56.6,29.33,SSE,154,7.4,11.5,57,0.00,-RA,BKN,0.00,299.3,WeatherDisplay:10.37,2013-04-19 15:45:00,
2013-04-19 11:50:00,72.9,56.7,29.33,SE,145,11.6,21.5,57,0.00,-RA,BKN,0.00,386.8,WeatherDisplay:10.37,2013-04-19 15:50:00,
2013-04-19 11:55:00,73.0,56.9,29.33,SSW,194,8.3,15.0,57,0.00,-RA,BKN,0.00,300.7,WeatherDisplay:10.37,2013-04-19 15:55:00,
2013-04-19 12:00:00,72.7,57.0,29.34,SSE,147,9.8,14.7,58,0.00,-RA,BKN,0.00,346.0,WeatherDisplay:10.37,2013-04-19 16:00:00,
2013-04-19 12:05:00,72.5,56.9,29.33,South,191,12.3,18.4,58,0.00,-RA,BKN,0.00,370.0,WeatherDisplay:10.37,2013-04-19 16:05:00,
2013-04-19 12:10:00,72.7,57.0,29.32,SE,127,9.2,13.8,58,0.00,-RA,BKN,0.00,424.0,WeatherDisplay:10.37,2013-04-19 16:10:00,
2013-04-19 12:15:00,72.7,57.0,29.32,South,181,13.7,19.6,58,0.00,-RA,BKN,0.00,468.5,WeatherDisplay:10.37,2013-04-19 16:15:00,
2013-04-19 12:20:00,72.9,57.2,29.32,SSE,161,10.6,21.9,58,0.00,-RA,BKN,0.00,434.2,WeatherDisplay:10.37,2013-04-19 16:20:00,
2013-04-19 12:25:00,72.9,56.7,29.32,SSE,155,10.0,18.4,57,0.00,-RA,BKN,0.00,430.7,WeatherDisplay:10.37,2013-04-19 16:25:00,
2013-04-19 12:30:00,73.0,56.9,29.31,SSE,160,9.6,12.7,57,0.00,-RA,BKN,0.00,533.4,WeatherDisplay:10.37,2013-04-19 16:30:00,
2013-04-19 12:35:00,73.4,57.2,29.31,South,176,12.4,25.3,57,0.00,-RA,BKN,0.00,742.5,WeatherDisplay:10.37,2013-04-19 16:35:00,
2013-04-19 12:40:00,73.6,56.9,29.30,South,182,9.2,14.7,56,0.00,-RA,BKN,0.00,634.2,WeatherDisplay:10.37,2013-04-19 16:40:00,
2013-04-19 12:45:00,73.6,56.9,29.31,SSW,197,9.2,12.9,56,0.00,-RA,BKN,0.00,506.0,WeatherDisplay:10.37,2013-04-19 16:45:00,
2013-04-19 12:50:00,73.2,57.1,29.29,SSE,167,14.4,19.6,57,0.00,-RA,BKN,0.00,449.0,WeatherDisplay:10.37,2013-04-19 16:50:00,
2013-04-19 12:55:00,72.9,56.7,29.29,SSE,162,12.3,16.1,57,0.00,-RA,BKN,0.00,619.2,WeatherDisplay:10.37,2013-04-19 16:55:00,
2013-04-19 13:00:00,73.0,56.9,29.31,South,169,11.3,21.9,57,0.00,-RA,BKN,0.00,634.4,WeatherDisplay:10.37,2013-04-19 17:00:00,
2013-04-19 13:05:00,73.4,57.2,29.29,SSW,195,9.2,11.6,57,0.00,-RA,BKN,0.00,906.2,WeatherDisplay:10.37,2013-04-19 17:05:00,
2013-04-19 13:10:00,73.0,57.4,29.30,SSW,192,14.6,21.9,58,0.00,-RA,BKN,0.00,1026.1,WeatherDisplay:10.37,2013-04-19 17:10:00,
2013-04-19 13:15:00,73.2,57.6,29.30,SSW,207,9.9,18.4,58,0.00,-RA,BKN,0.00,919.1,WeatherDisplay:10.37,2013-04-19 17:15:00,
2013-04-19 13:20:00,73.0,57.4,29.30,SW,220,13.7,24.2,58,0.00,-RA,BKN,0.00,771.9,WeatherDisplay:10.37,2013-04-19 17:20:00,
2013-04-19 13:25:00,73.0,58.3,29.29,South,179,7.8,13.8,60,0.00,-RA,BKN,0.00,700.4,WeatherDisplay:10.37,2013-04-19 17:25:00,
2013-04-19 13:30:00,72.3,57.2,29.29,SSW,210,14.9,26.5,59,0.00,-RA,BKN,0.00,511.6,WeatherDisplay:10.37,2013-04-19 17:30:00,
2013-04-19 13:35:00,72.1,57.9,29.29,SSE,168,9.1,17.3,61,0.00,-RA,BKN,0.00,559.4,WeatherDisplay:10.37,2013-04-19 17:35:00,
2013-04-19 13:40:00,71.4,58.2,29.29,SSW,193,10.8,20.7,63,0.00,-RA,BKN,0.00,567.6,WeatherDisplay:10.37,2013-04-19 17:40:00,
2013-04-19 13:45:00,70.3,57.6,29.31,SSW,211,13.6,15.0,64,0.00,-RA,BKN,0.00,378.0,WeatherDisplay:10.37,2013-04-19 17:45:00,
2013-04-19 13:50:00,59.7,49.9,29.32,WSW,248,12.3,17.3,70,0.00,-RA,BKN,0.00,108.2,WeatherDisplay:10.37,2013-04-19 17:50:00,
2013-04-19 13:55:00,55.2,48.5,29.34,SW,223,9.7,12.7,78,0.00,-RA,BKN,0.00,63.4,WeatherDisplay:10.37,2013-04-19 17:55:00,
2013-04-19 14:00:00,52.9,47.9,29.33,West,262,11.4,16.1,83,0.00,-RA,BKN,0.00,278.5,WeatherDisplay:10.37,2013-04-19 18:00:00,
2013-04-19 14:05:00,52.3,47.3,29.35,SW,220,11.0,14.3,83,0.00,-RA,BKN,0.00,233.8,WeatherDisplay:10.37,2013-04-19 18:05:00,
2013-04-19 14:10:00,50.7,47.6,29.36,SSW,197,15.1,23.8,89,0.00,-RA,BKN,0.00,143.5,WeatherDisplay:10.37,2013-04-19 18:10:00,
2013-04-19 14:15:00,48.9,45.5,29.38,SSW,211,14.5,19.6,88,0.00,-RA,BKN,0.00,297.6,WeatherDisplay:10.37,2013-04-19 18:15:00,
2013-04-19 14:20:00,48.0,44.6,29.37,SW,236,13.9,19.6,88,0.00,-RA,BKN,0.00,90.3,WeatherDisplay:10.37,2013-04-19 18:20:00,
2013-04-19 14:25:00,47.8,44.5,29.37,SW,231,12.5,18.4,88,0.00,-RA,BKN,0.00,156.5,WeatherDisplay:10.37,2013-04-19 18:25:00,
2013-04-19 14:30:00,46.9,43.6,29.38,WSW,255,13.6,20.7,88,0.00,-RA,BKN,0.00,89.9,WeatherDisplay:10.37,2013-04-19 18:30:00,
2013-04-19 14:35:00,46.4,42.4,29.39,SSW,210,14.5,19.6,86,0.00,-RA,BKN,0.00,147.5,WeatherDisplay:10.37,2013-04-19 18:35:00,
2013-04-19 14:40:00,45.9,42.2,29.39,SW,227,16.2,19.6,87,0.00,-RA,BKN,0.00,84.0,WeatherDisplay:10.37,2013-04-19 18:40:00,
2013-04-19 14:45:00,45.7,42.3,29.40,SSW,197,12.9,18.4,88,0.00,-RA,BKN,0.00,88.8,WeatherDisplay:10.37,2013-04-19 18:45:00,
2013-04-19 14:50:00,45.1,42.1,29.39,SW,214,11.9,17.3,89,0.00,-RA,BKN,0.00,290.9,WeatherDisplay:10.37,2013-04-19 18:50:00,
2013-04-19 14:55:00,44.8,42.0,29.38,WSW,256,12.6,18.4,90,0.00,-RA,BKN,0.00,560.7,WeatherDisplay:10.37,2013-04-19 18:55:00,
2013-04-19 15:00:00,44.8,42.0,29.39,West,261,14.5,18.4,90,0.00,-RA,BKN,0.00,495.2,WeatherDisplay:10.37,2013-04-19 19:00:00,
2013-04-19 15:05:00,44.6,41.8,29.40,WSW,257,17.2,23.2,90,0.00,OVC,BKN,0.00,366.2,WeatherDisplay:10.37,2013-04-19 19:05:00,
2013-04-19 15:10:00,44.2,41.2,29.40,SW,226,12.0,16.1,89,0.00,OVC,BKN,0.00,153.8,WeatherDisplay:10.37,2013-04-19 19:10:00,
2013-04-19 15:15:00,44.1,41.6,29.39,SSW,193,14.6,25.3,91,0.00,OVC,BKN,0.00,744.5,WeatherDisplay:10.37,2013-04-19 19:15:00,
2013-04-19 15:20:00,44.2,42.1,29.38,WSW,240,13.1,17.3,92,0.00,OVC,BKN,0.00,640.1,WeatherDisplay:10.37,2013-04-19 19:20:00,
2013-04-19 15:25:00,44.6,43.0,29.39,SSW,202,10.0,12.7,94,0.00,OVC,BKN,0.00,621.1,WeatherDisplay:10.37,2013-04-19 19:25:00,
2013-04-19 15:30:00,44.2,41.8,29.39,SW,229,15.2,20.7,91,0.00,OVC,BKN,0.00,584.3,WeatherDisplay:10.37,2013-04-19 19:30:00,
2013-04-19 15:35:00,43.9,40.3,29.40,SW,220,18.0,21.9,87,0.00,OVC,BKN,0.00,348.0,WeatherDisplay:10.37,2013-04-19 19:35:00,
2013-04-19 15:40:00,43.5,40.2,29.42,WSW,246,16.1,20.7,88,0.00,OVC,BKN,0.00,274.8,WeatherDisplay:10.37,2013-04-19 19:40:00,
2013-04-19 15:45:00,43.5,40.2,29.40,SW,224,13.6,17.3,88,0.00,OVC,BKN,0.00,730.4,WeatherDisplay:10.37,2013-04-19 19:45:00,
2013-04-19 15:50:00,43.3,40.6,29.42,SSW,210,16.7,18.7,90,0.00,-RA,BKN,0.00,850.6,WeatherDisplay:10.37,2013-04-19 19:50:00,
2013-04-19 15:55:00,43.2,40.1,29.43,SW,228,17.3,28.8,89,0.00,-RA,BKN,0.00,558.3,WeatherDisplay:10.37,2013-04-19 19:55:00,
2013-04-19 16:00:00,43.2,39.6,29.42,South,187,19.5,32.2,87,0.00,-RA,BKN,0.00,817.8,WeatherDisplay:10.37,2013-04-19 20:00:00,
2013-04-19 16:05:00,42.6,39.0,29.42,SSW,210,17.7,32.2,87,0.00,-RA,BKN,0.00,708.6,WeatherDisplay:10.37,2013-04-19 20:05:00,
2013-04-19 16:10:00,42.6,39.0,29.41,SSW,206,17.4,25.3,87,0.00,-RA,BKN,0.00,1224.3,WeatherDisplay:10.37,2013-04-19 20:10:00,
2013-04-19 16:15:00,42.6,38.7,29.42,SSW,206,15.1,32.2,86,0.00,-RA,BKN,0.00,324.6,WeatherDisplay:10.37,2013-04-19 20:15:00,
2013-04-19 16:20:00,42.3,38.7,29.42,SSW,200,14.0,18.4,87,0.00,-RA,BKN,0.00,253.0,WeatherDisplay:10.37,2013-04-19 20:20:00,
2013-04-19 16:25:00,41.7,37.8,29.43,SW,224,16.7,25.3,86,0.00,-RA,BKN,0.00,101.6,WeatherDisplay:10.37,2013-04-19 20:25:00,
2013-04-19 16:30:00,41.2,37.9,29.45,SW,223,16.7,20.7,88,0.00,-RA,BKN,0.00,52.6,WeatherDisplay:10.37,2013-04-19 20:30:00,
2013-04-19 16:35:00,40.6,37.4,29.42,South,191,15.1,25.3,88,0.00,-RA,BKN,0.00,154.0,WeatherDisplay:10.37,2013-04-19 20:35:00,
2013-04-19 16:40:00,40.6,37.9,29.43,SW,223,12.8,18.4,90,0.00,-RA,BKN,0.00,239.3,WeatherDisplay:10.37,2013-04-19 20:40:00,
2013-04-19 16:45:00,40.8,38.1,29.42,WSW,240,14.5,19.1,90,0.01,-RA,BKN,0.01,511.0,WeatherDisplay:10.37,2013-04-19 20:45:00,
2013-04-19 16:50:00,41.5,38.8,29.43,SW,216,13.1,18.4,90,0.01,RA,BKN,0.01,548.1,WeatherDisplay:10.37,2013-04-19 20:50:00,
2013-04-19 16:55:00,41.4,36.9,29.42,SW,232,19.0,29.9,84,0.01,OVC,BKN,0.01,320.5,WeatherDisplay:10.37,2013-04-19 20:55:00,
2013-04-19 17:00:00,41.5,37.1,29.42,SSW,204,16.1,21.9,84,0.01,OVC,BKN,0.01,480.6,WeatherDisplay:10.37,2013-04-19 21:00:00,
2013-04-19 17:05:00,41.7,37.8,29.44,SW,221,14.6,20.7,86,0.01,OVC,BKN,0.01,310.1,WeatherDisplay:10.37,2013-04-19 21:05:00,
2013-04-19 17:10:00,41.5,36.8,29.46,SSW,210,15.8,20.7,83,0.01,OVC,BKN,0.01,79.2,WeatherDisplay:10.37,2013-04-19 21:10:00,
2013-04-19 17:15:00,41.2,36.7,29.46,SW,233,17.7,28.8,84,0.01,OVC,BKN,0.01,257.3,WeatherDisplay:10.37,2013-04-19 21:15:00,
2013-04-19 17:20:00,41.4,36.6,29.44,SSW,197,14.7,18.4,83,0.02,RA,BKN,0.02,287.8,WeatherDisplay:10.37,2013-04-19 21:20:00,
2013-04-19 17:25:00,41.7,37.2,29.47,SSW,211,15.5,26.5,84,0.02,RA,BKN,0.02,550.0,WeatherDisplay:10.37,2013-04-19 21:25:00,
2013-04-19 17:30:00,41.9,36.8,29.47,SW,227,13.0,20.7,82,0.02,OVC,BKN,0.02,216.8,WeatherDisplay:10.37,2013-04-19 21:30:00,
2013-04-19 17:35:00,42.3,37.2,29.48,SW,236,11.3,16.1,82,0.02,OVC,BKN,0.02,217.5,WeatherDisplay:10.37,2013-04-19 21:35:00,
2013-04-19 17:40:00,41.7,36.6,29.49,SSW,197,16.1,26.5,82,0.02,OVC,BKN,0.02,200.3,WeatherDisplay:10.37,2013-04-19 21:40:00,
2013-04-19 17:45:00,41.7,36.0,29.49,SSW,209,14.9,20.7,80,0.01,OVC,BKN,0.02,160.0,WeatherDisplay:10.37,2013-04-19 21:45:00,
2013-04-19 17:50:00,41.7,35.4,29.48,SW,222,15.1,26.5,78,0.01,OVC,BKN,0.02,170.2,WeatherDisplay:10.37,2013-04-19 21:50:00,
2013-04-19 17:55:00,41.9,35.5,29.50,WSW,257,12.1,16.1,78,0.01,OVC,BKN,0.02,107.0,WeatherDisplay:10.37,2013-04-19 21:55:00,
2013-04-19 18:00:00,41.5,35.2,29.49,SW,214,19.2,24.2,78,0.01,OVC,BKN,0.02,86.3,WeatherDisplay:10.37,2013-04-19 22:00:00,
2013-04-19 18:05:00,41.5,35.5,29.50,SSW,206,11.9,15.9,79,0.01,BKN,,0.02,75.3,WeatherDisplay:10.37,2013-04-19 22:05:00,
2013-04-19 18:10:00,41.5,35.5,29.48,SW,230,13.7,21.9,79,0.01,BKN,,0.02,55.5,WeatherDisplay:10.37,2013-04-19 22:10:00,
2013-04-19 18:15:00,41.9,35.9,29.51,SW,221,8.4,17.3,79,0.01,BKN,,0.02,58.9,WeatherDisplay:10.37,2013-04-19 22:15:00,
2013-04-19 18:20:00,41.7,35.4,29.51,WSW,244,12.6,16.3,78,0.00,BKN,,0.02,38.8,WeatherDisplay:10.37,2013-04-19 22:20:00,
2013-04-19 18:25:00,41.7,35.4,29.52,WSW,237,9.9,14.8,78,0.00,BKN,,0.02,29.5,WeatherDisplay:10.37,2013-04-19 22:25:00,
2013-04-19 18:30:00,41.5,34.9,29.53,SW,231,14.5,24.2,77,0.00,BKN,,0.02,34.5,WeatherDisplay:10.37,2013-04-19 22:30:00,
2013-04-19 18:35:00,41.7,35.0,29.52,SSW,205,10.0,20.7,77,0.00,BKN,,0.02,32.4,WeatherDisplay:10.37,2013-04-19 22:35:00,
2013-04-19 18:40:00,41.7,35.0,29.54,WSW,249,11.0,21.9,77,0.00,BKN,,0.02,24.4,WeatherDisplay:10.37,2013-04-19 22:40:00,
2013-04-19 18:45:00,41.7,34.7,29.53,SW,220,12.4,17.6,76,0.00,BKN,,0.02,24.1,WeatherDisplay:10.37,2013-04-19 22:45:00,
2013-04-19 18:50:00,41.5,34.5,29.53,WSW,256,13.0,19.6,76,0.00,BKN,,0.02,19.5,WeatherDisplay:10.37,2013-04-19 22:50:00,
2013-04-19 18:55:00,41.5,34.5,29.53,West,262,12.0,21.9,76,0.00,BKN,,0.02,18.1,WeatherDisplay:10.37,2013-04-19 22:55:00,
2013-04-19 19:00:00,41.5,34.5,29.53,SSW,210,10.6,17.3,76,0.00,BKN,,0.02,14.3,WeatherDisplay:10.37,2013-04-19 23:00:00,
2013-04-19 19:05:00,41.7,34.7,29.55,SW,224,8.5,16.1,76,0.00,OVC,BKN,0.02,12.3,WeatherDisplay:10.37,2013-04-19 23:05:00,
2013-04-19 19:10:00,41.7,34.7,29.54,WSW,251,11.5,12.7,76,0.00,OVC,BKN,0.02,11.3,WeatherDisplay:10.37,2013-04-19 23:10:00,
2013-04-19 19:15:00,41.7,34.4,29.54,SW,215,11.4,13.8,75,0.00,OVC,BKN,0.02,8.4,WeatherDisplay:10.37,2013-04-19 23:15:00,
2013-04-19 19:20:00,41.7,34.7,29.54,WSW,249,8.6,14.0,76,0.00,OVC,BKN,0.02,8.3,WeatherDisplay:10.37,2013-04-19 23:20:00,
2013-04-19 19:25:00,41.9,34.9,29.55,SSW,211,8.9,13.8,76,0.00,OVC,BKN,0.02,6.2,WeatherDisplay:10.37,2013-04-19 23:25:00,
2013-04-19 19:30:00,41.7,34.7,29.55,SSW,208,10.9,13.8,76,0.00,OVC,BKN,0.02,5.6,WeatherDisplay:10.37,2013-04-19 23:30:00,
2013-04-19 19:35:00,41.9,34.6,29.55,SSW,213,9.1,15.0,75,0.00,OVC,BKN,0.02,4.3,WeatherDisplay:10.37,2013-04-19 23:35:00,
2013-04-19 19:40:00,41.5,33.9,29.55,SSW,210,13.2,17.3,74,0.00,OVC,BKN,0.02,4.4,WeatherDisplay:10.37,2013-04-19 23:40:00,
2013-04-19 19:45:00,41.9,34.2,29.55,WSW,248,11.4,17.3,74,0.00,OVC,BKN,0.02,3.9,WeatherDisplay:10.37,2013-04-19 23:45:00,
2013-04-19 19:50:00,41.7,34.0,29.55,SSW,209,10.2,17.3,74,0.00,OVC,BKN,0.02,2.9,WeatherDisplay:10.37,2013-04-19 23:50:00,
2013-04-19 19:55:00,41.7,34.0,29.54,SW,229,10.0,17.1,74,0.00,OVC,BKN,0.02,1.8,WeatherDisplay:10.37,2013-04-19 23:55:00,
2013-04-19 20:00:00,41.7,34.0,29.55,SSW,206,8.5,10.4,74,0.00,OVC,BKN,0.02,0.0,WeatherDisplay:10.37,2013-04-20 00:00:00,
2013-04-19 20:05:00,41.5,33.9,29.55,SSW,211,13.8,17.7,74,0.00,BKN,,0.02,0.0,WeatherDisplay:10.37,2013-04-20 00:05:00,
2013-04-19 20:10:00,41.5,33.9,29.56,SSW,195,11.7,13.8,74,0.00,BKN,,0.02,0.0,WeatherDisplay:10.37,2013-04-20 00:10:00,
2013-04-19 20:15:00,41.4,33.4,29.56,SW,216,13.9,13.9,73,0.00,BKN,,0.02,0.0,WeatherDisplay:10.37,2013-04-20 00:15:00,
2013-04-19 20:20:00,41.4,33.7,29.56,SSW,207,11.3,17.3,74,0.00,BKN,,0.02,0.0,WeatherDisplay:10.37,2013-04-20 00:20:00,
2013-04-19 20:25:00,41.4,33.7,29.55,South,189,12.9,17.3,74,0.00,BKN,,0.02,0.0,WeatherDisplay:10.37,2013-04-20 00:25:00,
2013-04-19 20:30:00,41.5,33.2,29.57,SW,232,11.0,15.0,72,0.00,BKN,,0.02,0.0,WeatherDisplay:10.37,2013-04-20 00:30:00,
2013-04-19 20:35:00,41.2,32.8,29.57,SW,219,11.2,16.1,72,0.00,BKN,,0.02,0.0,WeatherDisplay:10.37,2013-04-20 00:35:00,
2013-04-19 20:40:00,41.5,33.2,29.57,SW,217,10.3,16.1,72,0.00,BKN,,0.02,0.0,WeatherDisplay:10.37,2013-04-20 00:40:00,
2013-04-19 20:45:00,41.5,32.8,29.57,WSW,244,10.3,15.0,71,0.00,BKN,,0.02,0.0,WeatherDisplay:10.37,2013-04-20 00:45:00,
2013-04-19 20:50:00,41.5,32.8,29.57,WSW,249,13.1,17.3,71,0.00,BKN,,0.02,0.0,WeatherDisplay:10.37,2013-04-20 00:50:00,
2013-04-19 20:55:00,41.7,32.7,29.57,SW,219,10.6,19.4,70,0.00,BKN,,0.02,0.0,WeatherDisplay:10.37,2013-04-20 00:55:00,
2013-04-19 21:00:00,41.5,32.5,29.57,SSW,210,12.0,16.1,70,0.00,BKN,,0.02,0.0,WeatherDisplay:10.37,2013-04-20 01:00:00,
2013-04-19 21:05:00,41.9,32.8,29.58,SW,218,8.9,11.5,70,0.00,OVC,BKN,0.02,0.0,WeatherDisplay:10.37,2013-04-20 01:05:00,
2013-04-19 21:10:00,42.1,33.0,29.58,SSW,201,7.1,10.4,70,0.00,OVC,BKN,0.02,0.0,WeatherDisplay:10.37,2013-04-20 01:10:00,
2013-04-19 21:15:00,41.5,32.5,29.59,SW,232,13.6,17.3,70,0.00,OVC,BKN,0.02,0.0,WeatherDisplay:10.37,2013-04-20 01:15:00,
2013-04-19 21:20:00,41.7,32.7,29.59,SSW,208,9.0,13.8,70,0.00,OVC,BKN,0.02,0.0,WeatherDisplay:10.37,2013-04-20 01:20:00,
2013-04-19 21:25:00,41.9,32.8,29.60,SSW,210,8.1,10.4,70,0.00,OVC,BKN,0.02,0.0,WeatherDisplay:10.37,2013-04-20 01:25:00,
2013-04-19 21:30:00,41.9,32.8,29.61,SSW,213,8.8,18.4,70,0.00,OVC,BKN,0.02,0.0,WeatherDisplay:10.37,2013-04-20 01:30:00,
2013-04-19 21:35:00,41.7,32.3,29.61,SSW,195,8.5,15.0,69,0.00,OVC,BKN,0.02,0.0,WeatherDisplay:10.37,2013-04-20 01:35:00,
2013-04-19 21:40:00,41.7,32.3,29.61,WSW,242,10.1,16.1,69,0.00,OVC,BKN,0.02,0.0,WeatherDisplay:10.37,2013-04-20 01:40:00,
2013-04-19 21:45:00,41.7,32.3,29.61,SW,219,9.4,13.8,69,0.00,OVC,BKN,0.02,0.0,WeatherDisplay:10.37,2013-04-20 01:45:00,
2013-04-19 21:50:00,41.7,32.3,29.61,SW,236,10.8,15.0,69,0.00,OVC,BKN,0.02,0.0,WeatherDisplay:10.37,2013-04-20 01:50:00,
2013-04-19 21:55:00,41.7,31.9,29.61,WSW,256,9.3,11.6,68,0.00,OVC,BKN,0.02,0.0,WeatherDisplay:10.37,2013-04-20 01:55:00,
2013-04-19 22:00:00,41.7,32.3,29.60,SW,227,6.5,12.7,69,0.00,OVC,BKN,0.02,0.0,WeatherDisplay:10.37,2013-04-20 02:00:00,
2013-04-19 22:05:00,41.5,32.5,29.61,SW,215,10.7,18.4,70,0.00,OVC,BKN,0.02,0.0,WeatherDisplay:10.37,2013-04-20 02:05:00,
2013-04-19 22:10:00,41.5,32.5,29.61,SSW,210,9.4,13.8,70,0.00,OVC,BKN,0.02,0.0,WeatherDisplay:10.37,2013-04-20 02:10:00,
2013-04-19 22:15:00,41.5,32.1,29.61,SW,220,11.2,18.4,69,0.00,OVC,BKN,0.02,0.0,WeatherDisplay:10.37,2013-04-20 02:15:00,
2013-04-19 22:20:00,41.4,31.9,29.62,WSW,257,13.0,19.6,69,0.00,OVC,BKN,0.02,0.0,WeatherDisplay:10.37,2013-04-20 02:20:00,
2013-04-19 22:25:00,41.5,32.1,29.62,West,271,9.5,13.8,69,0.00,OVC,BKN,0.02,0.0,WeatherDisplay:10.37,2013-04-20 02:25:00,
2013-04-19 22:30:00,41.5,31.8,29.62,WSW,238,12.8,18.4,68,0.00,OVC,BKN,0.02,0.0,WeatherDisplay:10.37,2013-04-20 02:30:00,
2013-04-19 22:35:00,41.5,32.1,29.63,SSW,203,9.8,16.1,69,0.00,OVC,BKN,0.02,0.0,WeatherDisplay:10.37,2013-04-20 02:35:00,
2013-04-19 22:40:00,41.5,31.4,29.63,WSW,244,11.4,15.0,67,0.00,OVC,BKN,0.02,0.0,WeatherDisplay:10.37,2013-04-20 02:40:00,
2013-04-19 22:45:00,41.9,32.1,29.63,WSW,258,8.3,10.4,68,0.00,OVC,BKN,0.02,0.0,WeatherDisplay:10.37,2013-04-20 02:45:00,
2013-04-19 22:50:00,41.7,31.6,29.63,West,268,8.7,10.0,67,0.00,OVC,BKN,0.02,0.0,WeatherDisplay:10.37,2013-04-20 02:50:00,
2013-04-19 22:55:00,41.4,30.8,29.63,SW,214,11.3,23.0,66,0.00,OVC,BKN,0.02,0.0,WeatherDisplay:10.37,2013-04-20 02:55:00,
2013-04-19 23:00:00,41.7,31.6,29.63,South,189,7.0,11.5,67,0.00,OVC,BKN,0.02,0.0,WeatherDisplay:10.37,2013-04-20 03:00:00,
2013-04-19 23:05:00,41.4,31.6,29.63,SW,218,10.7,15.3,68,0.00,OVC,BKN,0.02,0.0,WeatherDisplay:10.37,2013-04-20 03:05:00,
2013-04-19 23:10:00,41.5,31.8,29.63,SW,227,9.3,13.8,68,0.00,OVC,BKN,0.02,0.0,WeatherDisplay:10.37,2013-04-20 03:10:00,
2013-04-19 23:15:00,41.5,31.8,29.63,SSW,203,7.7,13.8,68,0.00,OVC,BKN,0.02,0.0,WeatherDisplay:10.37,2013-04-20 03:15:00,
2013-04-19 23:20:00,41.2,31.4,29.63,WSW,244,9.7,15.0,68,0.00,OVC,BKN,0.02,0.0,WeatherDisplay:10.37,2013-04-20 03:20:00,
2013-04-19 23:25:00,41.2,31.4,29.63,SW,227,11.1,12.7,68,0.00,OVC,BKN,0.02,0.0,WeatherDisplay:10.37,2013-04-20 03:25:00,
2013-04-19 23:30:00,41.4,31.2,29.63,SW,220,8.4,13.8,67,0.00,OVC,BKN,0.02,0.0,WeatherDisplay:10.37,2013-04-20 03:30:00,
2013-04-19 23:35:00,41.5,31.4,29.63,SSW,206,7.5,13.8,67,0.00,OVC,BKN,0.02,0.0,WeatherDisplay:10.37,2013-04-20 03:35:00,
2013-04-19 23:40:00,41.4,31.2,29.63,SW,227,10.2,20.7,67,0.00,OVC,BKN,0.02,0.0,WeatherDisplay:10.37,2013-04-20 03:40:00,
2013-04-19 23:45:00,41.5,31.4,29.64,SW,231,8.6,11.5,67,0.00,OVC,BKN,0.02,0.0,WeatherDisplay:10.37,2013-04-20 03:45:00,
2013-04-19 23:50:00,41.2,31.0,29.63,WSW,241,9.7,14.8,67,0.00,OVC,BKN,0.02,0.0,WeatherDisplay:10.37,2013-04-20 03:50:00,
2013-04-19 23:55:00,41.2,31.4,29.63,SW,226,10.3,13.8,68,0.00,OVC,BKN,0.02,0.0,WeatherDisplay:10.37,2013-04-20 03:55:00,